STARLINK-32270 (60364 NORAD) Tracking and Keplerian Element Data

This shows tracking and keplerian element data for the satellite.

Feedback or suggestion? Click here.




ElementValue
Catalog60364
NameSTARLINK-32270
Epoch Orbit1183
Epoch Day286.20540406
Epoch Year2024
RAAN180.1756
Inclination53.161
Eccentricity9.44E-05
Argument of Perigee84.2657
Mean Anonmoly275.8455
Mean Motion15.39566668
Decay Rate-0.00010855
L11 60364U 24138K 24286.20540406 -.00010855 00000+0 -26225-3 0 9990
L22 60364 53.1610 180.1756 0000944 84.2657 275.8455 15.39566668 11838



Live tracking and technical data element details for STARLINK-32270 (NORAD 60364). STARLINK-32270 can be tracked NOW for your location showing map with azimuth and elevation plus other details from your city location.







IsCatalogInMostPopularTable: catalog: 60364, numindb: 8
Update: records affected: 1



GetName: 60364 STARLINK-32270

Hit Count: updated at: Tue, 03 Dec 2024 02:57:29 GMT